Preview of NWS' New Version of Forecast
This preview is not operational and should not be used for support decisions.

Regional Weather Roundup (RWR)

Issued by National Weather Service (NWS)

                            
000
ASUS45 KBOI 151110
RWRID 

IDAHO REGIONAL WEATHER ROUNDUP
NATIONAL WEATHER SERVICE BOISE ID
500 AM MDT SUN SEP 15 2019

NOTE: "FAIR" INDICATES FEW OR NO CLOUDS BELOW 12000 FEET
WITH NO SIGNIFICANT WEATHER AND/OR OBSTRUCTIONS TO VISIBILITY

IDZ012-014-151200-
SOUTHWEST IDAHO

  
CITY           SKY/WX    TMP DP  RH WIND       PRES   REMARKS
BOISE          CLEAR     64  38  38 SE13      29.84S                  
CALDWELL       CLEAR     59  42  53 E9        29.82R                  
MOUNTAIN HOME  CLEAR     56  43  62 E10       29.86F                  
$$

IDZ016-017-151200-
SOUTHCENTRAL IDAHO

  
CITY           SKY/WX    TMP DP  RH WIND       PRES   REMARKS
BURLEY         CLEAR     53  42  66 N6        29.94F                  
JEROME         CLEAR     56  39  53 E7        29.94F                  
TWIN FALLS     CLEAR     67  31  26 SW13      29.93F                  
$$

IDZ019>023-151200-
SOUTHEAST IDAHO

  
CITY           SKY/WX    TMP DP  RH WIND       PRES   REMARKS
IDAHO FALLS    CLEAR     47  40  76 N8        30.04F                  
POCATELLO      CLEAR     52  37  56 N8        30.00S                  
REXBURG        CLEAR     49  39  68 CALM      30.06S                  
$$

IDZ006-010-011-018-031-032-151200-
CENTRAL IDAHO MOUNTAINS

  
CITY           SKY/WX    TMP DP  RH WIND       PRES   REMARKS
MCCALL         CLEAR     45  38  76 CALM      29.93F                  
HAILEY         CLEAR     48  34  57 NW15      30.07F                  
STANLEY          N/A     36  29  75 S3        30.10F                  
SALMON         CLEAR     45  36  70 CALM      29.95S                  
CHALLIS        CLEAR     50  32  50 CALM      30.01S                  
$$

IDZ002-004-006-007-026-151200-
NORTHERN IDAHO

  
CITY           SKY/WX    TMP DP  RH WIND       PRES   REMARKS
LEWISTON       CLEAR     58  44  60 S5        29.78S                  
LOWELL           N/A     53  51  93 CALM      29.83F                  
COEUR D'ALENE  PTCLDY    49  45  86 NE5       29.81F                  
MULLAN PASS    CLEAR     51  38  60 VRB3      29.93F                  
$$